EC1ABR Weather Reports


Display with metric or nautical units.
time (UTC)temp
F
wind
direction
speed
MPH
gust
MPH
rain 1hr
in
rain 24hr
in
rain mn
in
humidity
%
barometer
mb
20260508110903 62 0 0.0 0.0 0.00 0.00 0.00 61 1012.4
20260508110213 62 0 0.0 0.0 0.00 0.00 0.00 63 1012.5
20260508105615 61 0 0.0 0.0 0.00 0.00 0.00 63 1012.6
20260508104717 61 0 0.0 0.0 0.00 0.00 0.00 66 1012.5
20260508103814 60 0 0.0 0.0 0.00 0.00 0.00 69 1012.5
20260508102917 60 0 0.0 0.0 0.00 0.00 0.00 74 1012.4
20260508102014 59 0 0.0 0.0 0.00 0.00 0.00 78 1012.2
20260508100904 58 0 0.0 0.0 0.00 0.00 0.00 80 1012.5
20260508100004 58 0 0.0 0.0 0.00 0.00 0.00 83 1012.5
20260508095615 58 0 0.0 0.0 0.00 0.00 0.00 84 1012.5
20260508094503 57 0 0.0 0.0 0.00 0.00 0.00 86 1012.4
20260508093603 56 0 0.0 0.0 0.00 0.00 0.00 89 1012.2
20260508092703 56 0 0.0 0.0 0.00 0.00 0.00 90 1012.3
20260508091804 56 0 0.0 0.0 0.00 0.00 0.00 91 1012.3
20260508090903 55 0 0.0 0.0 0.00 0.00 0.00 93 1012.2
20260508090004 55 0 0.0 0.0 0.00 0.00 0.00 94 1012.4
20260508085403 54 0 0.0 0.0 0.00 0.00 0.00 97 1012.2
20260508084503 54 0 0.0 0.0 0.00 0.00 0.00 99 1012.0
20260508083816 54 0 0.0 0.0 0.00 0.00 0.00 99 1012.0
20260508082704 54 0 0.0 0.0 0.00 0.00 0.00 99 1012.1
20260508081811 53 0 0.0 0.0 0.00 0.00 0.00 99 1012.1
20260508080903 53 0 0.0 0.0 0.00 0.00 0.00 99 1012.3
20260508080004 52 0 0.0 0.0 0.00 0.00 0.00 99 1012.0
20260508075403 52 0 0.0 0.0 0.00 0.00 0.00 99 1011.9
20260508074503 52 0 0.0 0.0 0.00 0.00 0.00 99 1012.1
20260508073603 51 0 0.0 0.0 0.00 0.00 0.00 99 1012.3
20260508072703 51 0 0.0 0.0 0.00 0.00 0.00 99 1012.1
20260508072016 51 0 0.0 0.0 0.00 0.00 0.00 99 1012.4
20260508070903 50 0 0.0 0.0 0.00 0.00 0.00 99 1012.3
20260508070004 50 0 0.0 0.0 0.00 0.00 0.00 99 1012.2
20260508065403 50 0 0.0 0.0 0.00 0.00 0.00 98 1012.3
20260508064714 50 0 0.0 0.0 0.00 0.00 0.00 98 1011.9
20260508063603 49 0 0.0 0.0 0.00 0.00 0.00 98 1012.3
20260508062703 49 0 0.0 0.0 0.00 0.00 0.00 97 1012.4
20260508061803 49 0 0.0 0.0 0.00 0.00 0.00 97 1012.4
20260508060903 48 0 0.0 0.0 0.00 0.00 0.00 97 1012.5
20260508060004 48 0 0.0 0.0 0.00 0.00 0.00 96 1012.2
20260508055618 48 0 0.0 0.0 0.00 0.00 0.00 96 1012.2
20260508054504 48 0 0.0 0.0 0.00 0.00 0.00 96 1012.1
20260508053603 47 0 0.0 0.0 0.00 0.00 0.00 96 1011.9
20260508052703 47 0 0.0 0.0 0.00 0.00 0.00 95 1011.8
20260508051803 47 0 0.0 0.0 0.00 0.00 0.00 95 1011.8
20260508050903 47 0 0.0 0.0 0.00 0.00 0.00 95 1011.7
20260508050004 47 0 0.0 0.0 0.00 0.00 0.00 95 1011.6
20260508045403 47 0 0.0 0.0 0.00 0.00 0.00 95 1011.8
20260508044504 47 0 0.0 0.0 0.00 0.00 0.00 95 1011.9
20260508043603 47 0 0.0 0.0 0.00 0.00 0.00 94 1012.1
20260508042703 47 0 0.0 0.0 0.00 0.00 0.00 94 1012.4
20260508041803 47 0 0.0 0.0 0.00 0.00 0.00 94 1012.3
20260508040903 47 0 0.0 0.0 0.00 0.00 0.00 94 1012.2
20260508040004 47 0 0.0 0.0 0.00 0.00 0.00 94 1012.3
20260508035404 47 0 0.0 0.0 0.00 0.00 0.00 94 1012.6
20260508034503 47 0 0.0 0.0 0.00 0.00 0.00 94 1012.6
20260508033603 47 0 0.0 0.0 0.00 0.00 0.00 93 1012.5
20260508032703 47 0 0.0 0.0 0.00 0.00 0.00 93 1012.5
20260508031804 47 0 0.0 0.0 0.00 0.00 0.00 93 1012.6
20260508030903 47 0 0.0 0.0 0.00 0.00 0.00 93 1012.8
20260508030004 47 0 0.0 0.0 0.00 0.00 0.00 93 1012.6
20260508025403 47 0 0.0 0.0 0.00 0.00 0.00 93 1012.6
20260508024503 47 0 0.0 0.0 0.00 0.00 0.00 92 1012.7
20260508023603 47 0 0.0 0.0 0.00 0.00 0.00 92 1012.9
20260508022704 47 0 0.0 0.0 0.00 0.00 0.00 92 1012.8
20260508022014 47 0 0.0 0.0 0.00 0.00 0.00 92 1012.9
20260508020903 48 0 0.0 0.0 0.00 0.00 0.00 92 1012.8
20260508020004 48 0 0.0 0.0 0.00 0.00 0.00 92 1013.2
20260508015403 48 0 0.0 0.0 0.00 0.00 0.00 92 1013.2
20260508014504 48 0 0.0 0.0 0.00 0.00 0.00 92 1013.2
20260508013603 48 0 0.0 0.0 0.00 0.00 0.00 91 1013.4
20260508012704 48 0 0.0 0.0 0.00 0.00 0.00 91 1013.4
20260508012015 49 0 0.0 0.0 0.00 0.00 0.00 91 1013.5
20260508010903 49 0 0.0 0.0 0.00 0.00 0.00 91 1013.5
20260508010214 49 0 0.0 0.0 0.00 0.00 0.00 91 1013.7
20260508005403 49 0 0.0 0.0 0.00 0.00 0.00 91 1013.8
20260508004504 49 0 0.0 0.0 0.00 0.00 0.00 91 1013.8
20260508003603 49 0 0.0 0.0 0.00 0.00 0.00 91 1014.1
20260508002703 50 0 0.0 0.0 0.00 0.00 0.00 91 1014.3
20260508002015 50 0 0.0 0.0 0.00 0.00 0.00 90 1014.3
20260508000903 50 0 0.0 0.0 0.00 0.00 0.00 90 1014.4
20260508000004 50 0 0.0 0.0 0.00 0.00 0.00 90 1014.4
20260507235404 51 0 0.0 0.0 0.00 0.00 0.00 90 1014.4
20260507234504 51 0 0.0 0.0 0.00 0.00 0.00 89 1014.5
20260507233603 51 0 0.0 0.0 0.00 0.00 0.00 88 1014.6
20260507232703 51 0 0.0 0.0 0.00 0.00 0.00 87 1014.9
20260507232016 51 0 0.0 0.0 0.00 0.00 0.00 87 1014.7
20260507230904 52 0 0.0 0.0 0.00 0.00 0.00 86 1014.8
20260507230221 52 0 0.0 0.0 0.00 0.00 0.00 86 1014.9
20260507225403 53 0 0.0 0.0 0.00 0.00 0.00 86 1014.8
20260507224504 53 0 0.0 0.0 0.00 0.00 0.00 85 1014.9
20260507223603 53 0 0.0 0.0 0.00 0.00 0.00 85 1015.0
20260507222703 54 0 0.0 0.0 0.00 0.00 0.00 85 1015.2
20260507221804 54 0 0.0 0.0 0.00 0.00 0.00 84 1015.5
20260507220904 54 0 0.0 0.0 0.00 0.00 0.00 81 1015.6
20260507220004 55 0 0.0 0.0 0.00 0.00 0.00 81 1015.7
20260507215403 55 0 0.0 0.0 0.00 0.00 0.00 81 1015.9
20260507214503 55 0 0.0 0.0 0.00 0.00 0.00 80 1016.2
20260507213603 56 0 0.0 0.0 0.00 0.00 0.00 80 1016.2
20260507212704 56 0 0.0 0.0 0.00 0.00 0.00 81 1016.3
20260507212017 56 0 0.0 0.0 0.00 0.00 0.00 81 1016.1
20260507210903 57 0 0.0 0.0 0.00 0.00 0.00 81 1016.3
20260507210004 57 0 0.0 0.0 0.00 0.00 0.00 81 1016.4
20260507205403 57 0 0.0 0.0 0.00 0.00 0.00 81 1016.2
20260507204504 58 0 0.0 0.0 0.00 0.00 0.00 81 1016.2
20260507203604 58 0 0.0 0.0 0.00 0.00 0.00 81 1016.0
20260507202915 58 0 0.0 0.0 0.00 0.00 0.00 81 1015.6
20260507201804 58 0 0.0 0.0 0.00 0.00 0.00 81 1015.3
20260507201115 59 0 0.0 0.0 0.00 0.00 0.00 80 1015.1
20260507200003 59 0 0.0 0.0 0.00 0.00 0.00 79 1015.0
20260507195403 59 0 0.0 0.0 0.00 0.00 0.00 78 1014.8
20260507194504 60 0 0.0 0.0 0.00 0.00 0.00 78 1014.6
20260507193603 60 0 0.0 0.0 0.00 0.00 0.00 76 1014.7
20260507192916 60 0 0.0 0.0 0.00 0.00 0.00 76 1014.6
20260507192013 61 0 0.0 0.0 0.00 0.00 0.00 75 1014.5
20260507190903 61 0 0.0 0.0 0.00 0.00 0.00 73 1014.6
20260507190213 62 0 0.0 0.0 0.00 0.00 0.00 73 1014.4
20260507185614 62 0 0.0 0.0 0.00 0.00 0.00 73 1014.5
20260507184504 62 0 0.0 0.0 0.00 0.00 0.00 73 1014.6
20260507183603 62 0 0.0 0.0 0.00 0.00 0.00 72 1014.3
20260507182703 62 0 0.0 0.0 0.00 0.00 0.00 72 1014.5
20260507182014 62 0 0.0 0.0 0.00 0.00 0.00 72 1014.5
20260507180903 63 0 0.0 0.0 0.00 0.00 0.00 71 1014.4
20260507180004 63 0 0.0 0.0 0.00 0.00 0.00 71 1014.5
20260507175615 63 0 0.0 0.0 0.00 0.00 0.00 71 1014.3
20260507174503 64 0 0.0 0.0 0.00 0.00 0.00 68 1014.4
20260507173815 64 0 0.0 0.0 0.00 0.00 0.00 68 1014.2
20260507172703 64 0 0.0 0.0 0.00 0.00 0.00 67 1014.1
20260507171803 64 0 0.0 0.0 0.00 0.00 0.00 67 1013.8
20260507170903 64 0 0.0 0.0 0.00 0.00 0.00 66 1013.6
20260507170214 64 0 0.0 0.0 0.00 0.00 0.00 66 1013.7
20260507165404 64 0 0.0 0.0 0.00 0.00 0.00 65 1013.6
20260507164503 64 0 0.0 0.0 0.00 0.00 0.00 64 1013.4
20260507163603 65 0 0.0 0.0 0.00 0.00 0.00 64 1013.3
20260507162703 65 0 0.0 0.0 0.00 0.00 0.00 62 1013.1
20260507161804 65 0 0.0 0.0 0.00 0.00 0.00 62 1012.9
20260507160903 65 0 0.0 0.0 0.00 0.00 0.00 62 1012.7
20260507160004 66 0 0.0 0.0 0.00 0.00 0.00 61 1012.6
20260507155616 66 0 0.0 0.0 0.00 0.00 0.00 61 1012.8
20260507154503 67 0 0.0 0.0 0.00 0.00 0.00 60 1012.7
20260507153603 67 0 0.0 0.0 0.00 0.00 0.00 59 1012.6
20260507152704 67 0 0.0 0.0 0.00 0.00 0.00 57 1012.6
20260507151803 68 0 0.0 0.0 0.00 0.00 0.00 57 1012.7
20260507150903 69 0 0.0 0.0 0.00 0.00 0.00 56 1012.7
20260507150216 68 0 0.0 0.0 0.00 0.00 0.00 54 1012.8
20260507145403 68 0 0.0 0.0 0.00 0.00 0.00 53 1012.5
20260507144504 68 0 0.0 0.0 0.00 0.00 0.00 54 1012.7
20260507143604 67 0 0.0 0.0 0.00 0.00 0.00 54 1013.0
20260507143504 67 0 0.0 0.0 0.00 0.00 0.00 55 1013.2
20260507142703 67 0 0.0 0.0 0.00 0.00 0.00 55 1005.9
20260507141803 67 0 0.0 0.0 0.00 0.00 0.00 55 1005.8
20260507140904 67 0 0.0 0.0 0.00 0.00 0.00 55 1005.9
20260507140004 67 0 0.0 0.0 0.00 0.00 0.00 57 1005.9
20260507135616 67 0 0.0 0.0 0.00 0.00 0.00 57 1005.9
20260507134503 67 0 0.0 0.0 0.00 0.00 0.00 58 1005.8
20260507133603 67 0 0.0 0.0 0.00 0.00 0.00 58 1005.9
20260507132703 67 0 0.0 0.0 0.00 0.00 0.00 58 1006.2
20260507131804 66 0 0.0 0.0 0.00 0.00 0.00 57 1006.2
20260507130903 66 0 0.0 0.0 0.00 0.00 0.00 57 1006.5
20260507130004 66 0 0.0 0.0 0.00 0.00 0.00 59 1006.6
20260507125617 66 0 0.0 0.0 0.00 0.00 0.00 58 1006.3
20260507124714 66 0 0.0 0.0 0.00 0.00 0.00 59 1006.4
20260507123603 66 0 0.0 0.0 0.00 0.00 0.00 55 1006.4
20260507122705 67 0 0.0 0.0 0.00 0.00 0.00 53 1006.6
20260507121803 67 0 0.0 0.0 0.00 0.00 0.00 53 1006.6
20260507120903 67 0 0.0 0.0 0.00 0.00 0.00 53 1006.6
20260507120216 67 0 0.0 0.0 0.00 0.00 0.00 55 1006.5
20260507115403 66 0 0.0 0.0 0.00 0.00 0.00 56 1006.4
20260507114715 66 0 0.0 0.0 0.00 0.00 0.00 56 1006.4
20260507113604 65 0 0.0 0.0 0.00 0.00 0.00 60 1006.6
20260507112704 65 0 0.0 0.0 0.00 0.00 0.00 59 1006.5
20260507111803 64 0 0.0 0.0 0.00 0.00 0.00 60 1006.7